CZ-6A DEB

Satellite information

Favourite Embed

Satellite Type and Status

DEBRISIN ORBIT

Key statistics

Satellite CZ-6A DEB at a glance.

Uptime

1075

Days in orbit

Revolutions

≈ 14.3

Per day

Orbit

SSO

Sun Synchronous Orbit

Inclination

98.8

Latest

Satellite identification and parameters

Extended collection of information and parameters for CZ-6A DEB.

Object identification

Identified? True

Debris? True

Object name: CZ-6A DEB

International designator: 2022-151ACQ

Object number (NORAD): 56272

Object ID (CCSDS): 56272

Country: PEOPLES REPUBLIC OF CHINA (PRC)

Current information (Y/N): Y

RCS size: SMALL

Orbital parameters

Period: 100.574 minutes

Inclination: 98.7746 deg

SMA: 7163.934 km

Apoapsis: 795.113 km

Periapsis: 776.486 km

RAAN: 311.3522 deg

Eccentricy: 0.00130008

Argument of periapsis: 217.3811 deg

Mean anomaly: 142.6469 deg

Mean motion: 14.31776909 rev/day

Mean motion (dot): 0.00009459 rev/day2

B* drag term: 0.0035499996 1/REarth

Two-line elements (TLE)

Creation date: Oct. 20, 2025, 6:08 p.m.

Reference frame: TEME

Reference center: EARTH

Epoch: Oct. 20, 2025, 12:24 p.m. UTC

TLE line 0: 0 CZ-6A DEB

TLE line 1: 1 56272U 22151ACQ 25293.51733812 .00009459 00000-0 35500-2 0 9996

TLE line 2: 2 56272 98.7746 311.3522 0013001 217.3811 142.6469 14.31776909133051

Live tracking on map

Real-time ground track for satellite CZ-6A DEB.

In-orbit conjunctions

A list of the most updated potential collisions computed for object CZ-6A DEB.

Target Orbit TCA Probability of collision Miss distance Type
COSMOS 2251 DEB LEO 2025-09-02 11:53:55 0.0001541586 390.0 (m) DEBRIS
NOAA 16 DEB SSO 2025-08-16 05:42:42 0.0004045918 142.0 (m) DEBRIS
SL-8 DEB LEO 2024-06-14 13:38:33 0.0001007027 446.0 (m) DEBRIS

Associated space launch

Chinese satellite reported for atmospheric/ocean/environmental/spatial parameter research purposes, details TBD.

CZ-6A DEB was lifted into orbit during the mission ‘Long March 6A | Yunhai 3’, on board a Long March 6A space rocket.

The launch took place on Nov. 11, 2022, 10:52 p.m. from Launch Complex 9A.

For more information about the launch, click the button.

Launch to space Long March 6A | Yunhai 3
Long March 6A | Yunhai 3

Agency: N/A

Status: Launch Successful

Launch date: Nov. 11, 2022, 10:52 p.m. UTC

Rocket: Long March 6A

Launch pad: Launch Complex 9A

Location: Taiyuan Satellite Launch Center, People's Republic of China

...

Latest news about this satellite

There are no fresh news available about this satellite. Check back as we update our databases every day.


Newsletter sign-up

Weekly statistics, charts and insights to help you stay on top of the space industry.